Wind_Speed
29 30 33 34 35 34 33 34 34 33 34 36 38 40 41 41 39 36 36 35 34 34 32 31 30 26 25 27 26 27 28 23 12 15 19 25 25 25 23 23 20 19 20
29 30 31 33 34 36 37 35 34 35 35 38 37 39 40 41 40 40 38 36 36 36 33 31 30 28 29 29 31 34 32 35 26 23 26 25 25 28 25 22 19 19 17
30 31 31 32 34 36 36 36 34 35 34 38 38 40 38 39 39 40 39 39 38 37 36 34 32 31 31 31 33 33 34 34 32 25 17 19 15 22 22 18 19 19 16
32 33 34 34 37 36 35 35 37 36 37 39 40 40 40 40 39 39 39 39 39 38 39 38 37 38 39 39 36 38 36 30 28 28 19 21 23 22 24 20 16 17 16
32 34 36 35 34 34 34 36 37 38 38 37 38 40 42 41 41 41 40 41 41 40 38 35 36 39 42 41 36 35 33 31 25 25 18 14 17 16 21 15 15 15 14
33 36 33 32 34 35 35 35 35 37 38 39 41 39 40 41 41 44 44 37 38 37 35 35 35 37 43 42 42 41 42 37 31 27 24 21 18 17 20 15 13 8 9
32 34 34 33 34 35 34 34 37 38 35 39 38 38 39 39 42 44 43 43 35 33 35 33 35 41 40 39 38 32 29 30 27 23 17 11 11 14 13 11 10 8 10
31 30 31 32 34 33 34 36 35 35 37 36 36 36 35 36 37 39 40 40 35 37 38 35 37 40 34 30 26 24 19 16 12 15 18 17 10 7 8 8 6 8 9
26 29 30 31 32 32 34 36 35 33 32 33 31 30 32 31 30 32 31 35 34 31 29 27 28 26 23 27 28 27 21 16 13 11 15 10 12 10 10 9 6 7 9
20 24 26 27 29 29 30 29 28 28 27 26 25 24 23 23 29 31 30 28 25 18 14 12 13 15 19 24 24 27 25 18 15 10 8 7 5 6 8 10 5 8 9
16 14 15 19 24 26 24 23 24 20 18 15 15 12 13 12 11 12 16 19 19 16 16 18 19 23 23 22 22 20 19 16 12 12 9 3 3 4 3 4 6 8 10
12 9 8 7 5 4 7 11 10 12 15 14 13 12 9 8 9 7 10 11 16 22 25 26 24 24 23 21 21 20 17 16 11 6 4 2 1 2 5 6 7 9 12
17 15 10 8 9 7 9 10 10 9 14 16 17 19 15 18 22 14 13 18 21 29 30 28 25 25 25 25 20 18 13 10 6 4 2 2 3 5 7 9 10 12 15
24 24 22 22 19 18 15 11 15 12 14 15 14 17 16 16 23 25 25 30 35 36 33 27 22 21 19 18 15 11 9 6 5 3 1 2 4 6 9 9 11 14 15
23 23 22 22 23 27 31 21 20 12 12 18 17 19 17 16 18 26 25 24 28 29 27 21 17 14 14 12 10 8 6 5 4 3 4 6 7 8 10 10 11 13 16
18 21 22 20 21 22 24 32 36 29 23 23 22 28 29 26 28 30 30 27 23 19 16 14 13 11 10 9 7 6 5 5 4 4 5 7 9 10 12 12 13 15 17
21 16 17 20 25 22 21 22 27 37 40 37 34 33 33 31 30 28 27 24 17 17 16 14 14 13 12 10 9 7 6 4 4 3 6 8 10 12 13 15 15 15 17
24 23 19 24 21 24 24 22 21 24 24 27 32 31 28 27 26 23 21 19 19 19 17 15 14 12 10 9 8 7 7 7 6 7 9 10 11 13 15 16 16 16 18
24 24 24 24 24 25 23 23 22 22 23 22 21 24 23 23 24 23 23 21 18 16 14 14 12 11 10 8 7 5 5 5 7 8 10 11 12 14 16 17 17 17 18
27 27 25 24 24 22 21 20 19 20 21 19 17 12 14 18 21 22 22 19 17 15 14 12 10 9 8 7 6 7 7 8 10 11 12 13 13 14 15 16 17 17 18
20 23 23 23 21 20 20 19 19 19 19 19 19 20 18 16 16 15 16 16 14 12 11 9 8 7 7 7 7 8 8 9 10 10 11 12 12 14 14 15 15 16 17
18 20 19 19 18 18 18 18 18 17 17 15 14 16 15 14 12 12 11 11 11 10 8 7 7 6 7 7 7 8 8 9 10 10 11 12 13 13 14 15 15 16 17
18 18 18 18 18 17 18 17 16 16 15 13 12 12 11 10 10 10 9 9 9 8 8 7 6 6 6 6 6 7 8 9 9 10 11 12 13 13 13 14 15 16 17
16 16 16 16 15 15 14 13 13 13 12 11 10 10 9 8 8 8 8 8 7 6 6 7 6 6 6 6 6 7 8 8 9 10 11 12 12 12 13 14 15 16 18
15 15 15 14 13 12 12 12 11 11 11 10 9 9 8 7 6 7 7 6 6 6 6 6 5 6 7 9 10 9 10 11 11 12 11 10 12 14 13 14 15 16 17
16 15 13 12 12 12 11 10 10 10 9 9 7 6 6 6 6 6 6 5 6 6 6 6 7 8 10 9 9 9 13 13 12 11 11 10 11 11 12 13 14 16 18
Wind_Direction
202 203 205 207 208 211 214 214 211 208 206 207 209 213 216 220 224 229 233 237 240 241 241 242 246 242 243 244 239 234 227 228 243 252 246 220 213 208 208 203 214 226 237
205 205 206 208 212 212 214 216 215 214 212 212 212 214 217 220 224 228 233 237 238 241 243 245 240 237 238 237 240 234 233 235 218 235 225 210 198 202 210 209 219 230 236
207 208 208 209 211 214 217 217 217 218 220 220 221 225 227 228 229 232 234 237 239 242 245 244 236 232 230 236 240 235 233 233 226 224 208 201 207 209 210 212 209 223 235
209 210 211 210 211 213 215 217 217 221 221 224 223 227 230 233 235 237 238 240 242 244 245 244 238 230 236 242 234 237 233 225 218 209 198 196 199 197 198 209 215 228 234
214 215 216 212 215 216 216 215 217 218 221 223 226 229 231 231 233 235 238 241 243 244 244 242 242 243 245 246 236 233 225 218 205 202 201 182 190 186 195 196 213 229 237
218 220 218 217 214 217 216 215 217 220 219 219 222 225 228 232 235 236 236 239 238 237 236 238 241 247 250 249 247 242 236 215 208 205 205 204 190 183 195 200 206 215 238
218 223 220 217 218 217 217 216 218 219 221 224 226 227 229 230 232 234 235 234 238 237 236 234 245 246 248 249 245 229 216 217 216 208 188 173 164 185 175 193 207 230 243
225 223 223 220 218 215 215 220 221 219 219 221 225 226 228 232 235 237 239 238 237 241 245 248 241 243 244 237 220 199 187 176 160 155 151 130 117 149 189 192 223 256 264
227 231 226 220 220 217 214 217 218 219 220 221 224 227 229 234 236 237 237 233 232 238 242 240 235 232 223 216 195 162 136 123 140 146 147 159 161 186 196 191 219 238 256
259 230 235 232 229 226 224 219 217 216 220 219 214 216 222 231 235 237 239 234 222 215 211 208 215 208 185 178 174 159 138 139 141 122 92 119 181 205 219 213 223 243 259
314 285 258 242 231 232 228 225 218 203 183 176 178 187 205 213 240 239 223 213 197 156 130 118 126 142 147 155 153 142 133 122 92 103 124 119 144 185 229 244 229 244 256
349 15 33 56 42 127 168 140 151 161 152 142 131 103 94 123 134 184 198 186 167 146 121 118 114 125 123 117 113 107 99 104 108 119 133 154 221 253 258 258 262 266 264
21 24 36 54 67 89 126 129 117 144 133 125 124 106 91 101 103 124 139 143 142 123 121 115 108 108 109 104 103 102 104 105 122 116 139 219 265 275 280 285 284 284 282
39 28 35 47 59 69 71 71 117 132 117 114 110 103 110 99 104 110 114 118 118 113 113 107 104 102 97 101 105 92 90 92 92 67 345 300 295 292 291 293 294 296 293
62 45 36 46 56 61 59 58 66 70 125 118 110 110 106 93 100 107 112 109 114 119 114 106 101 100 101 101 98 100 93 77 60 39 351 331 313 304 300 301 297 299 294
70 72 70 51 53 60 69 70 69 80 92 101 109 112 98 100 97 101 104 104 104 104 101 101 98 98 103 104 100 99 92 65 56 5 332 318 312 313 312 307 300 293 293
67 78 68 77 85 68 61 72 79 71 80 85 91 95 98 99 100 101 100 97 87 85 79 76 76 76 76 76 72 62 53 54 1 343 334 323 319 314 312 305 301 298 296
64 70 77 77 81 81 81 75 76 83 78 73 80 88 87 89 89 84 85 86 80 75 81 82 80 78 76 72 63 48 31 14 9 354 331 319 313 310 308 305 306 307 306
62 64 66 75 77 83 83 83 83 84 87 84 81 78 80 78 73 72 77 75 77 75 79 77 77 76 70 61 60 43 13 350 335 325 324 320 325 318 311 309 307 307 307
57 61 66 64 67 70 72 72 72 71 68 66 63 66 72 72 69 66 69 71 72 68 68 72 66 62 51 35 11 357 342 336 330 329 324 320 318 314 312 308 307 308 305
58 59 62 63 65 71 75 75 74 76 72 64 59 60 66 69 68 66 68 65 67 63 55 50 44 37 24 14 359 348 340 334 330 328 324 320 319 315 310 304 306 307 306
60 63 66 70 71 73 74 76 80 81 82 82 76 64 62 70 69 66 63 62 59 55 44 40 30 25 20 5 350 346 342 334 332 330 323 319 314 312 309 307 308 310 309
56 59 60 62 64 65 65 67 71 74 73 70 68 65 61 60 59 61 60 56 52 45 35 29 21 16 8 356 351 344 334 329 325 321 317 312 309 308 310 309 306 304 308
55 59 63 62 60 66 68 70 70 66 71 70 68 66 62 59 58 55 49 40 35 29 23 12 6 355 350 347 337 329 320 317 315 313 306 300 301 304 305 305 305 304 305
56 59 59 58 58 61 64 64 65 65 64 62 59 55 49 45 40 33 28 20 15 11 0 353 343 336 332 324 325 321 310 294 302 295 300 296 294 295 294 293 296 301 305
54 54 56 57 57 57 58 59 57 55 52 49 44 37 28 19 16 9 360 0 352 346 340 331 325 322 322 326 324 306 296 310 309 302 296 290 289 289 290 294 302 306 306
Height
722 727 733 737 742 747 751 754 757 761 764 768 772 777 780 784 789 791 792 794 796 798 799 800 801 802 803 805 806 805 805 806 803 804 805 805 805 810 812 811 816 818 819
715 721 725 731 736 738 741 745 750 754 758 762 766 769 772 775 778 781 783 784 786 787 788 790 790 793 795 795 797 794 796 796 793 797 796 799 798 801 804 804 809 813 813
709 713 717 721 725 728 733 738 742 746 749 754 758 760 762 765 769 771 772 774 775 776 778 780 781 783 785 785 785 786 785 784 784 786 789 792 794 795 798 800 802 805 807
701 705 707 711 713 717 723 728 732 736 740 744 746 749 753 756 759 761 763 764 765 766 768 770 771 771 772 771 771 772 773 774 774 777 779 781 785 787 788 793 796 800 803
694 696 696 701 707 712 715 718 722 727 730 735 738 740 742 745 746 748 751 753 755 756 758 760 762 762 762 760 761 761 763 763 763 769 772 774 777 779 783 785 789 793 796
685 684 691 696 699 702 706 710 714 717 719 721 723 726 730 733 734 737 741 743 744 746 748 749 752 753 751 752 751 750 750 751 754 759 763 764 765 772 775 780 786 787 791
675 679 682 685 689 692 698 701 702 704 710 711 714 717 718 720 721 724 729 733 736 736 736 737 737 739 740 739 742 745 744 749 751 755 757 763 767 769 774 778 783 787 787
667 670 673 677 677 681 687 689 692 695 698 701 703 706 709 710 714 718 722 725 727 728 729 729 729 728 729 732 735 739 743 747 751 752 753 756 769 772 778 781 785 786 785
659 663 664 666 670 672 673 676 681 686 688 691 696 700 703 704 707 709 713 715 717 718 719 720 720 721 722 725 729 734 743 749 753 753 751 765 763 770 776 781 783 785 784
651 654 659 663 665 667 667 670 673 678 682 685 687 690 693 698 701 702 704 706 709 712 715 716 719 721 724 728 730 735 740 747 750 758 763 762 769 772 777 779 780 782 783
656 653 653 655 658 661 664 668 670 672 674 679 683 687 689 688 695 700 699 700 704 710 715 719 723 725 727 731 735 738 744 751 759 760 762 771 773 773 776 777 778 779 780
663 658 656 655 656 658 661 664 669 671 674 679 686 690 695 694 688 701 702 703 706 710 717 724 728 729 733 738 740 744 749 753 759 767 770 773 775 777 779 779 778 778 777
670 667 663 662 663 664 665 666 672 677 678 681 686 689 702 701 693 701 707 706 709 715 721 726 733 735 736 740 748 750 755 758 764 764 768 771 773 776 778 777 776 775 774
677 678 676 672 672 671 673 677 671 680 682 685 691 692 702 705 700 703 712 713 714 719 725 730 735 738 744 747 750 755 760 763 765 767 771 772 773 774 775 774 774 773 770
684 687 689 685 684 683 683 685 682 687 684 686 692 696 705 708 709 706 717 721 722 726 731 735 740 744 748 753 757 760 763 765 768 771 773 773 774 773 772 771 771 771 770
692 691 696 697 696 695 695 695 696 695 694 697 702 701 709 718 716 716 722 732 735 734 737 740 743 747 752 755 760 764 766 768 770 772 774 775 774 773 771 769 768 768 766
695 701 703 701 698 705 709 709 707 713 711 711 714 717 719 721 721 726 727 732 739 740 743 748 749 753 757 760 764 768 769 770 772 772 773 774 774 773 772 770 767 765 762
707 707 707 704 711 711 714 718 720 718 723 727 729 729 731 731 731 734 735 741 744 746 748 752 755 759 762 765 767 769 771 772 772 773 773 774 773 772 770 767 764 762 760
718 718 717 718 718 718 724 726 729 732 733 736 740 739 741 741 739 739 741 745 748 752 755 758 759 761 765 767 768 770 772 772 773 772 772 773 771 770 769 767 764 761 760
729 728 728 728 727 729 733 735 739 740 740 742 744 748 749 749 747 749 750 754 756 759 761 765 767 766 768 770 771 772 772 771 771 770 771 772 770 768 765 766 763 760 758
738 737 736 736 738 741 742 744 746 747 748 752 755 755 755 757 760 762 760 759 763 764 766 767 769 770 770 770 771 773 772 772 772 771 770 770 769 767 766 764 761 759 757
747 746 747 747 748 749 749 749 749 752 753 758 763 762 762 764 767 767 768 766 766 768 770 771 771 772 771 774 775 773 771 773 772 770 770 770 769 765 764 762 760 758 756
755 754 755 755 755 755 756 757 757 758 761 765 765 767 769 772 771 771 771 770 770 772 772 774 774 773 773 774 773 774 774 773 771 771 769 769 767 764 762 761 759 757 755
763 763 764 765 764 764 765 765 766 767 768 769 769 770 773 775 775 775 772 773 773 774 774 774 775 776 773 774 773 773 774 771 770 768 769 768 765 763 761 759 758 756 754
771 771 770 771 771 770 770 771 772 772 772 772 774 775 776 777 777 775 774 776 776 774 774 775 775 775 773 772 771 771 770 767 767 767 766 764 762 762 759 758 757 754 751
776 776 777 777 776 776 775 776 776 776 776 776 778 779 779 779 778 778 779 778 776 775 775 774 774 772 770 770 769 768 766 765 764 763 761 761 759 759 757 756 754 752 749